Gustavus, AK

1:58 PM AKST on February 19, 2018 (GMT -0900)
Gustavus

Weather History for PAGS - July, 2013

Change the Weather History Date:

Sunday, July 21, 2013

  Actual Average Record
Temperature  
Mean Temperature 58 °F -  
Max Temperature 62 °F 63 °F 81 °F (1955)
Min Temperature 55 °F 50 °F 40 °F (1960)
Degree Days  
Heating Degree Days 6    
Growing Degree Days 8 (Base 50)    
Moisture  
Dew Point 54 °F    
Average Humidity 89    
Maximum Humidity 94    
Minimum Humidity 77    
Precipitation  
Precipitation 0.00 in - - ()
Sea Level Pressure  
Sea Level Pressure 29.93 in    
Wind  
Wind Speed 2 mph (SW)    
Max Wind Speed 10 mph    
Max Gust Speed -    
Visibility 9 miles    
Events      
Averages and records for this station are not official NWS values.
T = Trace of Precipitation, MM = Missing Value Source: NWS Daily Summary

Daily Weather History Graph

Daily Weather History Graph

Search for Another Location

Airport or City:

Trip Planner

Search our weather history database for the weather conditions in past years. The results will help you decide how hot, cold, wet, or windy it might be!

Date:

Astronomy

Jul. 21, 2013 Rise Set
Actual Time 4:31 AM AKDT 9:45 PM AKDT
Civil Twilight 3:29 AM AKDT 10:46 PM AKDT
Nautical Twilight 1:41 AM AKDT 12:36 AM AKDT
Astronomical Twilight Sun does not rise Sun does not rise
Moon 8:34 PM AKDT (7/21) 3:34 AM AKDT (7/21)
Length of Visible Light 19h 16m
Length of Day
17h 13m
Waxing Gibbous, 99% of the Moon is Illuminated
Jul 21
Waxing Gibbous
Jul 22
Full
Jul 29
Last Quarter
Aug 6
New
Aug 14
First Quarter

Hourly Weather History & Observations

Time (AKDT) Temp. Dew Point Humidity Pressure Visibility Wind Dir Wind Speed Gust Speed Precip Events Conditions
12:16 AM 55.4 °F 53.6 °F 94% 29.94 in 7.0 mi Calm Calm - N/A   Overcast
12:36 AM 55.4 °F 53.6 °F 94% 29.94 in 5.0 mi Calm Calm - N/A   Overcast
12:56 AM 55.4 °F 53.6 °F 94% 29.94 in 6.0 mi Calm Calm - N/A   Overcast
1:16 AM 55.4 °F 53.6 °F 94% 29.94 in 5.0 mi Calm Calm - N/A   Overcast
1:36 AM 55.4 °F 53.6 °F 94% 29.94 in 8.0 mi Calm Calm - N/A   Overcast
1:56 AM 55.4 °F 53.6 °F 94% 29.93 in 7.0 mi Calm Calm - N/A   Overcast
2:16 AM 55.4 °F 53.6 °F 94% 29.93 in 5.0 mi Calm Calm - N/A   Overcast
2:36 AM 55.4 °F 53.6 °F 94% 29.93 in 5.0 mi Calm Calm - N/A   Overcast
2:56 AM 55.4 °F 53.6 °F 94% 29.93 in 7.0 mi Calm Calm - N/A   Overcast
3:16 AM 55.4 °F 53.6 °F 94% 29.92 in 10.0 mi Calm Calm - N/A   Overcast
3:36 AM 55.4 °F 53.6 °F 94% 29.92 in 7.0 mi Calm Calm - N/A   Overcast
3:56 AM 55.4 °F 53.6 °F 94% 29.92 in 10.0 mi East 3.5 mph - N/A   Overcast
4:16 AM 55.4 °F 53.6 °F 94% 29.92 in 10.0 mi Calm Calm - N/A   Overcast
4:36 AM 55.4 °F 53.6 °F 94% 29.92 in 10.0 mi Calm Calm - N/A   Overcast
4:56 AM 55.4 °F 53.6 °F 94% 29.92 in 10.0 mi Calm Calm - N/A   Overcast
5:16 AM 55.4 °F 53.6 °F 94% 29.92 in 7.0 mi Calm Calm - N/A   Overcast
5:36 AM 55.4 °F 53.6 °F 94% 29.92 in 7.0 mi Calm Calm - N/A   Overcast
5:56 AM 55.4 °F 53.6 °F 94% 29.91 in 10.0 mi Calm Calm - N/A   Overcast
6:16 AM 55.4 °F 53.6 °F 94% 29.92 in 10.0 mi Calm Calm - N/A   Overcast
6:36 AM 55.4 °F 53.6 °F 94% 29.91 in 3.0 mi Calm Calm - N/A   Overcast
6:56 AM 55.4 °F 53.6 °F 94% 29.91 in 3.0 mi Calm Calm - N/A   Overcast
7:16 AM 55.4 °F 53.6 °F 94% 29.92 in 8.0 mi Calm Calm - N/A   Overcast
7:36 AM 55.4 °F 53.6 °F 94% 29.92 in 2.0 mi Calm Calm - N/A   Overcast
7:56 AM 55.4 °F 53.6 °F 94% 29.92 in 3.0 mi Calm Calm - N/A   Overcast
8:16 AM 55.4 °F 53.6 °F 94% 29.91 in 1.5 mi Calm Calm - N/A   Overcast
8:36 AM 55.4 °F 53.6 °F 94% 29.92 in 2.5 mi Calm Calm - N/A   Overcast
8:56 AM 55.4 °F 53.6 °F 94% 29.92 in 3.0 mi Calm Calm - N/A   Overcast
9:16 AM 55.4 °F 53.6 °F 94% 29.92 in 5.0 mi Calm Calm - N/A   Overcast
9:36 AM 55.4 °F 53.6 °F 94% 29.92 in 10.0 mi Calm Calm - N/A   Overcast
9:56 AM 57.2 °F 53.6 °F 88% 29.92 in 10.0 mi SSW 3.5 mph - N/A   Overcast
10:16 AM 57.2 °F 55.4 °F 94% 29.92 in 9.0 mi SW 3.5 mph - N/A   Overcast
10:36 AM 59.0 °F 55.4 °F 88% 29.92 in 10.0 mi WSW 5.8 mph - N/A   Overcast
10:56 AM 59.0 °F 55.4 °F 88% 29.92 in 10.0 mi SW 6.9 mph - N/A   Overcast
11:16 AM 57.2 °F 53.6 °F 88% 29.92 in 10.0 mi SW 6.9 mph - N/A   Overcast
11:36 AM 59.0 °F 55.4 °F 88% 29.92 in 10.0 mi SW 5.8 mph - N/A   Overcast
11:56 AM 59.0 °F 55.4 °F 88% 29.92 in 10.0 mi WSW 8.1 mph - N/A   Overcast
12:16 PM 59.0 °F 55.4 °F 88% 29.93 in 10.0 mi WSW 6.9 mph - N/A   Overcast
12:36 PM 59.0 °F 55.4 °F 88% 29.93 in 10.0 mi WSW 6.9 mph - N/A   Overcast
12:56 PM 59.0 °F 55.4 °F 88% 29.93 in 10.0 mi WSW 5.8 mph - N/A   Overcast
1:16 PM 59.0 °F 55.4 °F 88% 29.93 in 10.0 mi WSW 4.6 mph - N/A   Overcast
1:36 PM 59.0 °F 55.4 °F 88% 29.94 in 10.0 mi SW 4.6 mph - N/A   Overcast
1:56 PM 59.0 °F 55.4 °F 88% 29.94 in 10.0 mi SW 4.6 mph - N/A   Overcast
2:16 PM 60.8 °F 55.4 °F 82% 29.94 in 10.0 mi SW 4.6 mph - N/A   Overcast
2:36 PM 62.6 °F 55.4 °F 77% 29.93 in 10.0 mi SSW 4.6 mph - N/A   Overcast
2:56 PM 62.6 °F 57.2 °F 82% 29.93 in 10.0 mi SW 8.1 mph - N/A   Overcast
3:16 PM 60.8 °F 55.4 °F 82% 29.93 in 10.0 mi SSW 6.9 mph - N/A   Mostly Cloudy
3:36 PM 60.8 °F 55.4 °F 82% 29.93 in 10.0 mi SW 5.8 mph - N/A   Overcast
3:56 PM 62.6 °F 55.4 °F 77% 29.93 in 10.0 mi SW 9.2 mph - N/A   Mostly Cloudy
4:16 PM 62.6 °F 55.4 °F 77% 29.93 in 10.0 mi SW 9.2 mph - N/A   Overcast
4:36 PM 60.8 °F 53.6 °F 77% 29.93 in 10.0 mi WSW 10.4 mph - N/A   Overcast
4:56 PM 60.8 °F 53.6 °F 77% 29.94 in 10.0 mi SSW 9.2 mph - N/A   Mostly Cloudy
5:16 PM 60.8 °F 53.6 °F 77% 29.94 in 10.0 mi SSW 5.8 mph - N/A   Overcast
5:36 PM 60.8 °F 53.6 °F 77% 29.94 in 10.0 mi SW 8.1 mph - N/A   Overcast
5:56 PM 60.8 °F 53.6 °F 77% 29.94 in 10.0 mi South 4.6 mph - N/A   Overcast
6:16 PM 59.0 °F 53.6 °F 82% 29.94 in 10.0 mi South 5.8 mph - N/A   Overcast
6:36 PM 60.8 °F 55.4 °F 82% 29.94 in 10.0 mi South 4.6 mph - N/A   Mostly Cloudy
6:56 PM 60.8 °F 55.4 °F 82% 29.94 in 10.0 mi SSW 4.6 mph - N/A   Overcast
7:16 PM 57.2 °F 53.6 °F 88% 29.94 in 10.0 mi SW 5.8 mph - N/A   Overcast
7:36 PM 57.2 °F 53.6 °F 88% 29.94 in 10.0 mi SW 5.8 mph - N/A   Overcast
7:56 PM 57.2 °F 53.6 °F 88% 29.95 in 10.0 mi South 3.5 mph - N/A   Overcast
8:16 PM 57.2 °F 53.6 °F 88% 29.95 in 10.0 mi South 3.5 mph - N/A   Overcast
8:36 PM 57.2 °F 53.6 °F 88% 29.95 in 10.0 mi Calm Calm - N/A   Overcast
8:56 PM 57.2 °F 53.6 °F 88% 29.95 in 10.0 mi SW 3.5 mph - N/A   Overcast
9:16 PM 57.2 °F 53.6 °F 88% 29.95 in 10.0 mi SW 3.5 mph - N/A   Overcast
9:36 PM 57.2 °F 51.8 °F 82% 29.95 in 10.0 mi Calm Calm - N/A   Mostly Cloudy
9:56 PM 55.4 °F 53.6 °F 94% 29.95 in 10.0 mi Calm Calm - N/A   Mostly Cloudy
10:16 PM 55.4 °F 51.8 °F 88% 29.96 in 10.0 mi SE 5.8 mph - N/A   Overcast
10:36 PM 55.4 °F 53.6 °F 94% 29.96 in 10.0 mi South 4.6 mph - N/A   Overcast
10:56 PM 55.4 °F 51.8 °F 88% 29.96 in 10.0 mi Calm Calm - N/A   Overcast
11:16 PM 55.4 °F 51.8 °F 88% 29.97 in 10.0 mi Calm Calm - N/A   Overcast
11:36 PM 55.4 °F 53.6 °F 94% 29.96 in 10.0 mi Calm Calm - N/A   Overcast
11:56 PM 55.4 °F 53.6 °F 94% 29.97 in 10.0 mi Calm Calm - N/A   Overcast